Weather History for Burlington, IA

Change the Weather History Date:

Friday, April 25, 2014

  Actual Average Record
Temperature  
Mean Temperature 60 °F 57 °F  
Max Temperature 76 °F 68 °F 92 °F (1986)
Min Temperature 43 °F 46 °F 29 °F (1910)
Degree Days  
Heating Degree Days 5 9  
Month to date heating degree days 354 317  
Since 1 July heating degree days 6642 5423  
Cooling Degree Days 0 1  
Month to date cooling degree days 8 15  
Year to date cooling degree days 8 17  
Growing Degree Days 9 (Base 50)    
Moisture  
Dew Point 43 °F    
Average Humidity 61    
Maximum Humidity 96    
Minimum Humidity 25    
Precipitation  
Precipitation 0.00 in 0.14 in 0.83 in (2007)
Month to date precipitation 2.58 3.00  
Year to date precipitation 8.12 8.65  
Sea Level Pressure  
Sea Level Pressure 29.81 in    
Wind  
Wind Speed 9 mph (West)    
Max Wind Speed 20 mph    
Max Gust Speed 25 mph    
Visibility 9 miles    
Events      
T = Trace of Precipitation, MM = Missing Value Source: NWS Daily Summary

Daily Weather History Graph

Daily Weather History Graph

Search for Another Location

Airport:

Trip Planner

Search our weather history database for the weather conditions in past years. The results will help you decide how hot, cold, wet, or windy it might be!

Date:

Astronomy

Apr. 25, 2014 Rise Set
Actual Time 6:10 AM CDT 7:54 PM CDT
Civil Twilight 5:41 AM CDT 8:23 PM CDT
Nautical Twilight 5:06 AM CDT 8:59 PM CDT
Astronomical Twilight 4:28 AM CDT 9:37 PM CDT
Moon 4:00 AM CDT (4/25) 4:15 PM CDT (4/25)
Length of Visible Light 14h 42m
Length of Day
13h 43m
Waning Crescent, 15% of the Moon is Illuminated
Apr 25
Waning Crescent
Apr 29
New
May 6
First Quarter
May 14
Full
May 21
Last Quarter

Hourly Weather History & Observations

Time (CDT) Temp. Windchill Dew Point Humidity Pressure Visibility Wind Dir Wind Speed Gust Speed Precip Events Conditions
12:21 AM 51.1 °F - 48.9 °F 92% 29.71 in 7.0 mi NNW 11.5 mph 21.9 mph N/A   Overcast
12:41 AM 50.0 °F - 46.9 °F 89% 29.71 in 8.0 mi NNW 13.8 mph 21.9 mph N/A   Mostly Cloudy
12:49 AM 50.0 °F - 46.4 °F 87% 29.72 in 8.0 mi NNW 13.8 mph 24.2 mph N/A   Mostly Cloudy
12:53 AM 50.0 °F - 46.0 °F 86% 29.72 in 8.0 mi NNW 16.1 mph 23.0 mph N/A   Mostly Cloudy
1:04 AM 50.0 °F - 46.0 °F 86% 29.72 in 8.0 mi NNW 12.7 mph - N/A   Scattered Clouds
1:53 AM 48.0 °F - 46.0 °F 93% 29.73 in 7.0 mi NNW 15.0 mph 21.9 mph N/A   Scattered Clouds
2:53 AM 46.9 °F - 44.1 °F 90% 29.75 in 8.0 mi NW 11.5 mph 19.6 mph N/A   Clear
3:53 AM 46.0 °F 41.4 °F 43.0 °F 89% 29.78 in 9.0 mi NW 9.2 mph - N/A   Clear
4:53 AM 44.1 °F 39.0 °F 42.1 °F 93% 29.81 in 8.0 mi NW 9.2 mph - N/A   Clear
5:53 AM 43.0 °F 38.2 °F 41.0 °F 93% 29.83 in 8.0 mi WNW 8.1 mph - N/A   Clear
6:53 AM 44.1 °F 39.5 °F 42.1 °F 93% 29.86 in 5.0 mi NW 8.1 mph - N/A   Clear
7:53 AM 48.9 °F - 44.1 °F 83% 29.87 in 9.0 mi NNW 5.8 mph - N/A   Clear
8:53 AM 52.0 °F - 46.0 °F 80% 29.87 in 10.0 mi Calm Calm - N/A   Clear
9:53 AM 57.9 °F - 46.0 °F 65% 29.88 in 10.0 mi SW 5.8 mph - N/A   Clear
10:53 AM 62.1 °F - 48.0 °F 60% 29.88 in 10.0 mi SW 8.1 mph - N/A   Clear
11:53 AM 66.9 °F - 48.0 °F 51% 29.87 in 10.0 mi West 10.4 mph - N/A   Clear
12:53 PM 70.0 °F - 44.1 °F 39% 29.86 in 10.0 mi WSW 11.5 mph - N/A   Clear
1:53 PM 73.0 °F - 39.0 °F 29% 29.85 in 10.0 mi West 12.7 mph 17.3 mph N/A   Clear
2:53 PM 73.9 °F - 37.0 °F 26% 29.84 in 10.0 mi West 12.7 mph 23.0 mph N/A   Clear
3:53 PM 75.0 °F - 37.0 °F 25% 29.83 in 10.0 mi West 17.3 mph 24.2 mph N/A   Clear
4:53 PM 75.9 °F - 39.0 °F 26% 29.81 in 10.0 mi WSW 10.4 mph - N/A   Clear
5:53 PM 75.0 °F - 37.9 °F 26% 29.80 in 10.0 mi WSW 12.7 mph - N/A   Clear
6:53 PM 73.0 °F - 37.9 °F 28% 29.79 in 10.0 mi WSW 11.5 mph - N/A   Clear
7:53 PM 66.0 °F - 39.9 °F 38% 29.80 in 10.0 mi SW 9.2 mph - N/A   Clear
8:53 PM 66.0 °F - 42.1 °F 42% 29.81 in 10.0 mi SSW 6.9 mph - N/A   Clear
9:53 PM 62.1 °F - 45.0 °F 53% 29.83 in 10.0 mi SSW 9.2 mph - N/A   Clear
10:53 PM 60.1 °F - 46.0 °F 60% 29.82 in 10.0 mi SSW 6.9 mph - N/A   Clear
11:53 PM 57.9 °F - 45.0 °F 62% 29.82 in 10.0 mi SSW 4.6 mph - N/A   Clear